User: anonymous   Login
Location: Newark
(49.3000°N, 9.4667°E)
Time: 10:50:50
(UTC+00:00)
Language:

Transit 2A Rocket - Orbit

View from above orbital plane
View from above orbital plane
View from above satellite
View from above satellite

Ground track
Ground track

The orbit data is extracted from the following two-line orbital elements,

1    47U 60007C   19287.86884911 -.00000041 +00000-0 +15770-4 0  9996
2    47 066.6646 094.3081 0221797 124.8369 237.3818 14.42053174099127
Epoch (UTC): 14 October 2019 20:51:08
Eccentricity: 0.0221797
inclination: 66.6646°
perigee height: 593 km
apogee height: 910 km
right ascension of ascending node: 94.3081°
argument of perigee: 124.8369°
revolutions per day: 14.42053174
mean anomaly at epoch: 237.3818°
orbit number at epoch: 9912

The dashed part of the orbit path shows where the satellite is in the earth's shadow,  

DLR